FW5697 Weather Reports


time (UTC)temp
F
wind
direction
speed
knots
gust
knots
rain 1hr
in
rain 24hr
in
rain mn
in
humidity
%
barometer
mb
20260905184550 96 0 0.0 2.6 0.00 0.00 0.00 50 1012.0
20260905183042 96 0 0.0 2.6 0.00 0.00 0.00 52 1012.3
20260905181540 96 0 0.0 2.6 0.00 0.00 0.00 48 1012.8
20260905180034 96 252 0.0 2.6 0.00 0.00 0.00 53 1012.7
20260905174535 94 355 0.9 2.6 0.00 0.00 0.00 51 1012.8
20260905173035 94 0 0.0 4.3 0.00 0.00 0.00 53 1013.1
20260905171538 93 182 0.0 4.3 0.00 0.00 0.00 57 1013.3
20260905170032 92 325 0.9 2.6 0.00 0.00 0.00 57 1013.5
20260905164538 91 0 0.9 5.2 0.00 0.00 0.00 57 1013.7
20260905163035 91 0 0.0 2.6 0.00 0.00 0.00 59 1013.9
20260905161536 90 56 0.9 3.5 0.00 0.00 0.00 59 1014.1
20260905160036 90 0 0.0 3.5 0.00 0.00 0.00 61 1014.1
20260905154537 89 0 0.9 3.5 0.00 0.00 0.00 62 1014.1
20260905153050 88 333 0.9 5.2 0.00 0.00 0.00 66 1014.2
20260905151539 87 0 0.0 0.0 0.00 0.00 0.00 68 1014.3
20260905150039 86 0 0.0 0.0 0.00 0.00 0.00 71 1014.4
20260905144534 85 0 0.0 3.5 0.00 0.00 0.00 73 1014.4
20260905143038 84 0 0.0 0.0 0.00 0.00 0.00 75 1014.6
20260905141534 83 0 0.0 0.0 0.00 0.00 0.00 81 1014.6
20260905140036 81 0 0.0 0.0 0.00 0.00 0.00 83 1014.5
20260905134534 80 0 0.0 0.0 0.00 0.00 0.00 87 1014.7
20260905133035 78 0 0.0 0.0 0.00 0.00 0.00 93 1014.6
20260905131551 76 0 0.0 0.0 0.00 0.00 0.00 95 1014.8
20260905130040 75 0 0.0 0.0 0.00 0.00 0.00 97 1014.8
20260905124536 74 0 0.0 0.0 0.00 0.00 0.00 97 1014.8
20260905123037 73 0 0.0 0.0 0.00 0.00 0.00 97 1014.9
20260905121537 73 0 0.0 0.0 0.00 0.00 0.00 97 1014.6
20260905120039 72 0 0.0 0.0 0.00 0.00 0.00 97 1014.6
20260905114536 72 0 0.0 0.0 0.00 0.00 0.00 97 1014.7
20260905113035 72 0 0.0 0.0 0.00 0.00 0.00 96 1014.6
20260905111557 72 0 0.0 0.0 0.00 0.00 0.00 96 1014.4
20260905110035 72 0 0.0 0.0 0.00 0.00 0.00 96 1014.3
20260905104536 72 0 0.0 0.0 0.00 0.00 0.00 96 1014.1
20260905103034 72 0 0.0 0.0 0.00 0.00 0.00 96 1014.0
20260905101535 72 0 0.0 0.0 0.00 0.00 0.00 96 1014.1
20260905100036 72 0 0.0 0.0 0.00 0.00 0.00 96 1014.1
20260905094536 73 0 0.0 0.0 0.00 0.00 0.00 96 1014.0
20260905093036 73 0 0.0 0.0 0.00 0.00 0.00 96 1014.0
20260905091534 73 0 0.0 0.0 0.00 0.00 0.00 96 1014.0
20260905090035 73 0 0.0 0.0 0.00 0.00 0.00 95 1014.0
20260905084536 73 0 0.0 0.0 0.00 0.00 0.00 95 1014.0
20260905083032 73 0 0.0 0.0 0.00 0.00 0.00 95 1013.9
20260905081534 74 0 0.0 0.0 0.00 0.00 0.00 95 1014.0
20260905080035 74 0 0.0 0.0 0.00 0.00 0.00 94 1013.9
20260905074533 74 0 0.0 0.0 0.00 0.00 0.00 94 1013.8
20260905073053 74 0 0.0 0.0 0.00 0.00 0.00 94 1013.8
20260905071542 75 0 0.0 0.0 0.00 0.00 0.00 93 1013.6
20260905070037 75 0 0.0 0.0 0.00 0.00 0.00 94 1013.5
20260905064536 75 0 0.0 0.0 0.00 0.00 0.00 93 1013.8
20260905063036 75 0 0.0 0.0 0.00 0.00 0.00 92 1014.1
20260905061537 75 0 0.0 0.0 0.00 0.00 0.00 92 1014.2
20260905060037 76 0 0.0 0.0 0.00 0.00 0.00 92 1014.3
20260905054542 76 0 0.0 0.0 0.00 0.00 0.00 91 1014.6
20260905053040 76 0 0.0 0.0 0.00 0.00 0.00 90 1014.6
20260905051535 77 0 0.0 0.0 0.00 0.00 0.00 90 1014.6
20260905050031 77 0 0.0 0.0 0.00 0.00 0.00 90 1014.6
20260905044533 76 0 0.0 0.0 0.00 0.00 0.00 90 1014.7
20260905043035 76 0 0.0 0.0 0.00 0.00 0.00 90 1014.7
20260905041533 77 0 0.0 0.0 0.00 0.00 0.00 88 1014.7
20260905040037 77 0 0.0 0.0 0.00 0.00 0.00 88 1014.7
20260905034535 77 0 0.0 0.0 0.00 0.00 0.00 86 1014.9
20260905033048 77 0 0.0 0.0 0.00 0.00 0.00 85 1014.7
20260905031543 77 0 0.0 0.0 0.00 0.00 0.00 87 1014.9
20260905030032 77 0 0.0 0.0 0.00 0.00 0.00 87 1014.9
20260905024534 77 0 0.0 0.0 0.00 0.00 0.00 86 1015.0
20260905023041 78 0 0.0 0.0 0.00 0.00 0.00 86 1015.2
20260905021538 78 0 0.0 0.0 0.00 0.00 0.00 85 1015.2
20260905020036 79 0 0.0 0.0 0.00 0.00 0.00 84 1015.2
20260905014535 79 0 0.0 0.0 0.00 0.00 0.00 83 1015.5
20260905013036 80 0 0.0 0.0 0.00 0.00 0.00 81 1015.4
20260905011535 81 0 0.0 0.0 0.00 0.00 0.00 79 1015.2
20260905010034 82 0 0.0 0.0 0.00 0.00 0.00 78 1015.1
20260905004537 82 0 0.0 0.0 0.00 0.00 0.00 75 1014.7
20260905003036 83 0 0.0 0.0 0.00 0.00 0.00 74 1014.6
20260905001535 84 0 0.0 0.0 0.00 0.00 0.00 73 1014.5
20260905000034 85 0 0.0 0.0 0.00 0.00 0.00 68 1014.2
20260904234534 87 0 0.0 0.0 0.00 0.00 0.00 64 1014.2
20260904233035 89 0 0.0 0.0 0.00 0.00 0.00 60 1014.1
20260904231539 91 0 0.0 0.0 0.00 0.00 0.00 57 1014.0
20260904230037 92 0 0.0 0.0 0.00 0.00 0.00 54 1013.9
20260904224551 93 0 0.0 0.0 0.00 0.00 0.00 52 1013.9
20260904223037 94 0 0.0 0.0 0.00 0.00 0.00 50 1014.1
20260904221536 94 0 0.0 0.0 0.00 0.00 0.00 52 1014.1
20260904220038 95 0 0.0 0.9 0.00 0.00 0.00 50 1014.2
20260904214542 95 0 0.0 0.0 0.00 0.00 0.00 50 1014.1
20260904213037 95 0 0.0 0.0 0.00 0.00 0.00 52 1014.1
20260904211536 94 0 0.0 2.6 0.00 0.00 0.00 52 1014.1
20260904210043 94 0 0.0 2.6 0.00 0.00 0.00 52 1014.2
20260904204535 95 0 0.0 1.7 0.00 0.00 0.00 54 1014.1
20260904203032 94 0 0.0 2.6 0.00 0.00 0.00 52 1014.4
20260904201537 94 0 0.0 4.3 0.00 0.00 0.00 54 1014.6
20260904200035 93 0 0.0 1.7 0.00 0.00 0.00 56 1014.9
20260904194540 92 62 0.0 2.6 0.00 0.00 0.00 56 1014.9
20260904193033 93 316 0.9 3.5 0.00 0.00 0.00 55 1015.2
20260904191532 92 0 0.0 1.7 0.00 0.00 0.00 57 1015.4
20260904190034 91 53 0.0 1.7 0.00 0.00 0.00 59 1015.6